Regional Weather Roundup
Issued by NWS

Home | Current Version | Previous Version | Graphics & Text | Print | Product List | Glossary On
Versions: 1 2 3 4 5 6 7 8 9 10 11 12 13 14 15 16 17 18 19 20 21 22 23 24 25 26 27 28 29 30 31 32 33 34 35 36 37 38 39 40 41 42 43 44 45 46 47 48 49 50
000
ASUS45 KBOI 171610
RWRID
WEATHER ROUNDUP FOR IDAHO
NATIONAL WEATHER SERVICE BOISE ID
1000 AM MDT WED SEP 17 2014

NOTE: "FAIR" INDICATES FEW OR NO CLOUDS BELOW 12000 FEET
WITH NO SIGNIFICANT WEATHER AND/OR OBSTRUCTIONS TO VISIBILITY

IDZ012-014-171700-
SOUTHWEST IDAHO


CITY           SKY/WX    TMP DP  RH WIND       PRES   REMARKS
BOISE          CLOUDY    73  42  32 CALM      29.88R
CALDWELL       CLOUDY    64  48  55 SE5       29.88S
MOUNTAIN HOME  CLOUDY    70  44  38 E10       29.89R
$$

IDZ016-017-171700-
SOUTHCENTRAL IDAHO


CITY           SKY/WX    TMP DP  RH WIND       PRES   REMARKS
BURLEY         MOSUNNY   67  49  52 E7        29.95F
JEROME         SUNNY     69  46  43 E10       29.95S
TWIN FALLS     MOSUNNY   77  42  28 CALM      29.94F
$$

IDZ019>023-171700-
SOUTHEAST IDAHO


CITY           SKY/WX    TMP DP  RH WIND       PRES   REMARKS
IDAHO FALLS    PTSUNNY   64  47  53 N7        30.01S
POCATELLO      MOSUNNY   69  50  50 E7        30.01S
REXBURG        MOSUNNY   61  46  57 N6        30.03F
$$

IDZ006-010-011-018-031-032-171700-
CENTRAL IDAHO MOUNTAINS


CITY           SKY/WX    TMP DP  RH WIND       PRES   REMARKS
MCCALL         CLOUDY    57  45  64 CALM      29.98S
HAILEY         PTSUNNY   64  37  36 NW10      30.06S
STANLEY          N/A     48  35  60 N3        30.15F
SALMON         MOSUNNY   55  46  71 CALM      30.01F
CHALLIS        PTSUNNY   57  43  59 NE3       30.07R
$$

IDZ002-004-006-007-026-171700-
NORTHERN IDAHO


CITY           SKY/WX    TMP DP  RH WIND       PRES   REMARKS
LEWISTON       CLOUDY    64  41  42 E3        29.81F
LOWELL           N/A     58  52  80 CALM      29.87F
COEUR D`ALENE  MOSUNNY   61  50  67 NE13      29.84F
MULLAN PASS    SUNNY     63  38  39 CALM      30.02R
$$



USA.gov is the U.S. government's official web portal to all federal, state and local government web resources and services.